Hermiston, OR

8:46 AM PDT on October 18, 2017 (GMT -0700)
Hermiston Municipal

Weather History for KHRI - September, 2013

Change the Weather History Date:

Thursday, September 12, 2013

  Actual Average Record
Temperature  
Mean Temperature 73 °F 65 °F  
Max Temperature 91 °F 81 °F 97 °F (1908)
Min Temperature 55 °F 48 °F 27 °F (1921)
Cooling Degree Days 8    
Growing Degree Days 23 (Base 50)    
Moisture  
Dew Point 54 °F    
Average Humidity 57    
Maximum Humidity 87    
Minimum Humidity 27    
Precipitation  
Precipitation 0.00 in 0.01 in 0.62 in (1928)
Month to date precipitation 0.16  
Year to date precipitation 6.78  
Sea Level Pressure  
Sea Level Pressure 29.87 in    
Wind  
Wind Speed 1 mph (South)    
Max Wind Speed 6 mph    
Max Gust Speed -    
Visibility 10 miles    
Events      
T = Trace of Precipitation, MM = Missing Value Source: NWS Daily Summary

Daily Weather History Graph

Daily Weather History Graph

Search for Another Location

Airport or City:

Trip Planner

Search our weather history database for the weather conditions in past years. The results will help you decide how hot, cold, wet, or windy it might be!

Date:

Astronomy

Sep. 12, 2013 Rise Set
Actual Time 6:32 AM PDT 7:13 PM PDT
Civil Twilight 6:01 AM PDT 7:43 PM PDT
Nautical Twilight 5:26 AM PDT 8:19 PM PDT
Astronomical Twilight 4:48 AM PDT 8:56 PM PDT
Moon 2:24 PM PDT (9/12) 11:53 PM PDT (9/12)
Length of Visible Light 13h 41m
Length of Day
12h 41m
Waxing Crescent, 51% of the Moon is Illuminated
Sep 12
Waxing Crescent
Sep 19
Full
Sep 26
Last Quarter
Oct 4
New
Oct 11
First Quarter

Hourly Weather History & Observations

Time (PDT) Temp. Heat Index Dew Point Humidity Pressure Visibility Wind Dir Wind Speed Gust Speed Precip Events Conditions
12:53 AM 64.0 °F - 55.0 °F 73% 29.88 in 10.0 mi Calm Calm - N/A   Clear
1:53 AM 61.0 °F - 54.0 °F 78% 29.89 in 10.0 mi Calm Calm - N/A   Clear
2:53 AM 59.0 °F - 53.1 °F 81% 29.89 in 10.0 mi South 4.6 mph - N/A   Clear
3:53 AM 57.9 °F - 53.1 °F 84% 29.89 in 10.0 mi Calm Calm - N/A   Clear
4:53 AM 55.9 °F - 52.0 °F 87% 29.91 in 10.0 mi Calm Calm - N/A   Clear
5:53 AM 55.9 °F - 52.0 °F 87% 29.91 in 10.0 mi Calm Calm - N/A   Clear
6:53 AM 55.9 °F - 52.0 °F 87% 29.92 in 8.0 mi Calm Calm - N/A   Clear
7:53 AM 62.1 °F - 54.0 °F 75% 29.94 in 10.0 mi Calm Calm - N/A   Clear
8:53 AM 73.0 °F - 53.1 °F 49% 29.94 in 10.0 mi South 4.6 mph - N/A   Clear
9:53 AM 78.1 °F - 53.1 °F 42% 29.94 in 10.0 mi Calm Calm - N/A   Clear
10:53 AM 82.0 °F 81.3 °F 54.0 °F 38% 29.92 in 10.0 mi NNW 3.5 mph - N/A   Clear
11:53 AM 82.9 °F 81.8 °F 53.1 °F 36% 29.91 in 10.0 mi Calm Calm - N/A   Clear
12:53 PM 87.1 °F - 52.0 °F 30% 29.89 in 10.0 mi Calm Calm - N/A   Clear
1:53 PM 87.1 °F 84.9 °F 53.1 °F 31% 29.87 in 10.0 mi SE 3.5 mph - N/A   Clear
2:53 PM 89.1 °F 86.7 °F 53.1 °F 29% 29.85 in 10.0 mi Calm Calm - N/A   Clear
3:53 PM 91.0 °F 88.5 °F 53.1 °F 27% 29.83 in 10.0 mi Calm Calm - N/A   Clear
4:53 PM 91.0 °F 88.5 °F 53.1 °F 27% 29.81 in 10.0 mi NW 3.5 mph - N/A   Clear
5:53 PM 87.1 °F 85.3 °F 55.0 °F 33% 29.80 in 10.0 mi SSE 3.5 mph - N/A   Clear
6:53 PM 80.1 °F 80.2 °F 55.9 °F 43% 29.80 in 10.0 mi SSE 4.6 mph - N/A   Clear
7:53 PM 73.0 °F - 57.0 °F 57% 29.80 in 9.0 mi SW 4.6 mph - N/A   Clear
8:53 PM 72.0 °F - 57.0 °F 59% 29.80 in 10.0 mi South 4.6 mph - N/A   Clear
9:53 PM 64.9 °F - 55.9 °F 73% 29.81 in 10.0 mi SE 3.5 mph - N/A   Clear
10:53 PM 68.0 °F - 53.1 °F 59% 29.81 in 10.0 mi SSE 5.8 mph - N/A   Clear
11:53 PM 62.1 °F - 54.0 °F 75% 29.81 in 4.0 mi SSE 3.5 mph - N/A   Haze